Regional Weather Roundup
Issued by NWS

Home | Current Version | Previous Version | Graphics & Text | Print | Product List | Glossary On
Versions: 1 2 3 4 5 6 7 8 9 10 11 12 13 14 15 16 17 18 19 20 21 22 23 24 25 26 27 28 29 30 31 32 33 34 35 36 37 38 39 40 41 42 43 44 45 46 47 48 49 50
000
ASUS43 KIND 171900
RWRIN

WEATHER ROUNDUP FOR INDIANA
NATIONAL WEATHER SERVICE INDIANAPOLIS IN
200 PM EST FRI NOV 17 2017

NOTE: "FAIR" INDICATES FEW OR NO CLOUDS BELOW 12,000 FEET WITH NO
SIGNIFICANT WEATHER AND/OR OBSTRUCTIONS TO VISIBILITY.

* - STATION DOES NOT REPORT WEATHER SUCH AS PRECIPITATION OR FOG.

+ - STATION NOT QUALITY CONTROLLED BY THE NATIONAL WEATHER SERVICE.
    USE DATA WITH CAUTION...ESPECIALLY DEWPOINT AND RELATIVE
    HUMIDITY OBSERVATIONS.

INZ001>003-010>013-019-020-172000-
NORTHWEST INDIANA

CITY           SKY/WX    TMP DP  RH WIND       PRES   REMARKS
GARY /AIRPORT/ CLOUDY    45  30  57 S5        29.92F
KNOX *+        PTSUNNY   43  34  70 SE13      29.97F
LA PORTE +     CLOUDY    43  32  65 S13G22    29.95F
MICHIGAN CITY+ CLOUDY    43  32  65 S12G21    29.94F
MONTICELLO +   CLOUDY    44  32  62 S12G17    29.98F
RENSSELAER +   CLOUDY    45  30  57 SE16      29.95F

$$

LMZ046-743>745-172000-
SOUTHERN LAKE MICHIGAN

STATION/POSITION TIME  TEMP    WIND        PRES    WAVE
                       AIR SEA DIR/SP/G            HT
                 (UTC) (F)     (DEG/KT/KT) (MB)    (FT)
BURNS HARBOR     1840   44     160/ 10/ 17 1013.5F
MICHIGAN CITY    1830   43     150/ 15/ 18   N/A

$$

INZ004-005-014>016-021>024-172000-
NORTH CENTRAL INDIANA

CITY           SKY/WX    TMP DP  RH WIND       PRES   REMARKS
ELKHART        MOSUNNY   43  32  65 SE17      29.97
GOSHEN         MOSUNNY   44  32  62 SE12      29.99F
PERU/GRISSOM   CLOUDY    44  35  68 SE15      29.97F
SOUTH BEND     CLOUDY    43  34  70 SE16      29.96F
WARSAW +       MOSUNNY   43  32  65 SE10G17   30.00F

$$

INZ006>009-017-018-025>027-172000-
NORTHEAST INDIANA

CITY           SKY/WX    TMP DP  RH WIND       PRES   REMARKS
AUBURN +       CLOUDY    45  32  61 SE8       30.03F
FORT WAYNE     CLOUDY    45  34  65 SE14      30.03F
KENDALLVILLE + CLOUDY    43  34  70 SE15      30.02F

$$

INZ028-029-035-036-043>045-051>053-172000-
WEST CENTRAL INDIANA

CITY           SKY/WX    TMP DP  RH WIND       PRES   REMARKS
CRAWFORDSVL +  CLOUDY    43  33  68 S14       29.99F
GREENCASTLE +  MOSUNNY   45  32  61 SE9       30.00F
LAFAYETTE      CLOUDY    45  33  63 S13       29.97F
TERRE HAUTE    CLOUDY    44  33  65 S12       30.01F

$$

INZ030>032-037>040-046>048-054>057-064-065-172000-
CENTRAL INDIANA

CITY           SKY/WX    TMP DP  RH WIND       PRES   REMARKS
ANDERSON       SUNNY     46  34  61 SE12      30.03F
COLUMBUS       SUNNY     45  32  61 S14       30.05F
INDIANAPOLIS   CLOUDY    45  33  63 SE10      30.01F
-EAGLE CREEK   CLOUDY    44  31  60 SE15      30.00F
KOKOMO +       CLOUDY    45  34  65 SE14      30.00F
MT COMFORT *+  CLOUDY    45  36  70 S12       30.02F
SHELBYVILLE    CLOUDY    47  33  58 SE15      30.03F

$$

INZ033-034-041-042-049-050-058-059-172000-
EAST CENTRAL INDIANA

CITY           SKY/WX    TMP DP  RH WIND       PRES   REMARKS
MUNCIE         PTSUNNY   47  31  53 S10       30.03F
RICHMOND +     CLOUDY    43  32  65 SE15      30.07F

$$

INZ060-061-067>069-081>083-085>088-172000-
SOUTHWEST INDIANA

CITY           SKY/WX    TMP DP  RH WIND       PRES   REMARKS
EVANSVILLE     CLOUDY    44  39  82 SE8       30.05F HAZE
HUNTINGBURG +  MOSUNNY   45  36  70 S9        30.05F

$$

INZ062-063-066-070>080-084-089>092-172000-
SOUTH CENTRAL AND SOUTHEAST INDIANA

CITY           SKY/WX    TMP DP  RH WIND       PRES   REMARKS
BLOOMINGTON    MOSUNNY   46  32  58 S12       30.02F
MADISON *+     CLOUDY    48  32  53 S6        30.08F
SEYMOUR +      CLOUDY    48  34  57 SE9       30.05F

$$





USA.gov is the U.S. government's official web portal to all federal, state and local government web resources and services.